| time (UTC) | temp F | wind direction | speed knots | gust knots | rain 1hr in | rain 24hr in | rain mn in | humidity % | barometer mb |
| 20260502151808 | 74 | 130 | 1.7 | 1.7 | 0.00 | 0.00 | 0.00 | 57 | 1122.0 |
| 20260502151304 | 74 | 291 | 0.9 | 1.7 | 0.00 | 0.00 | 0.00 | 57 | 1122.2 |
| 20260502150802 | 74 | 321 | 0.9 | 4.3 | 0.00 | 0.00 | 0.00 | 56 | 1122.0 |
| 20260502150258 | 74 | 11 | 0.9 | 2.6 | 0.00 | 0.00 | 0.00 | 56 | 1121.8 |
| 20260502130647 | 66 | 254 | 0.0 | 0.9 | 0.00 | 0.00 | 0.00 | 70 | 1121.7 |
| 20260502130145 | 66 | 248 | 0.0 | 0.9 | 0.00 | 0.00 | 0.00 | 70 | 1121.6 |
| 20260502123630 | 63 | 258 | 0.0 | 0.0 | 0.00 | 0.00 | 0.00 | 77 | 1121.1 |
| 20260502123126 | 63 | 255 | 0.0 | 0.0 | 0.00 | 0.00 | 0.00 | 78 | 1121.2 |
| 20260502122623 | 63 | 236 | 0.0 | 0.9 | 0.00 | 0.00 | 0.00 | 78 | 1120.9 |
| 20260502122120 | 63 | 237 | 0.0 | 0.9 | 0.00 | 0.00 | 0.00 | 78 | 1121.0 |
| 20260502121618 | 63 | 230 | 0.0 | 0.9 | 0.00 | 0.00 | 0.00 | 78 | 1120.9 |
| 20260502121115 | 63 | 234 | 0.0 | 0.0 | 0.00 | 0.00 | 0.00 | 77 | 1121.1 |
| 20260502120611 | 63 | 220 | 0.0 | 0.9 | 0.00 | 0.00 | 0.00 | 77 | 1120.8 |
| 20260502120108 | 63 | 219 | 0.9 | 0.9 | 0.00 | 0.00 | 0.00 | 77 | 1120.7 |
| 20260502115607 | 63 | 230 | 0.0 | 0.9 | 0.00 | 0.00 | 0.00 | 76 | 1120.7 |
| 20260502115102 | 64 | 217 | 0.9 | 0.9 | 0.00 | 0.00 | 0.00 | 76 | 1120.5 |
| 20260502114559 | 64 | 226 | 1.7 | 2.6 | 0.00 | 0.00 | 0.00 | 76 | 1120.7 |
| 20260502114055 | 64 | 230 | 0.0 | 1.7 | 0.00 | 0.00 | 0.00 | 75 | 1120.3 |
| 20260502113553 | 64 | 194 | 2.6 | 2.6 | 0.00 | 0.00 | 0.00 | 75 | 1120.7 |
| 20260502113051 | 64 | 207 | 0.9 | 1.7 | 0.00 | 0.00 | 0.00 | 74 | 1120.3 |
| 20260502112549 | 64 | 177 | 2.6 | 2.6 | 0.00 | 0.00 | 0.00 | 74 | 1120.4 |
| 20260502112046 | 64 | 230 | 0.9 | 1.7 | 0.00 | 0.00 | 0.00 | 74 | 1120.5 |
| 20260502111544 | 64 | 233 | 0.9 | 1.7 | 0.00 | 0.00 | 0.00 | 73 | 1120.3 |
| 20260502111041 | 64 | 216 | 0.9 | 1.7 | 0.00 | 0.00 | 0.00 | 73 | 1120.4 |
| 20260502110538 | 64 | 240 | 0.9 | 0.9 | 0.00 | 0.00 | 0.00 | 73 | 1120.2 |
| 20260502110036 | 64 | 244 | 0.0 | 0.9 | 0.00 | 0.00 | 0.00 | 73 | 1120.3 |
| 20260502105533 | 65 | 237 | 0.9 | 1.7 | 0.00 | 0.00 | 0.00 | 73 | 1120.2 |
| 20260502105031 | 65 | 237 | 0.9 | 1.7 | 0.00 | 0.00 | 0.00 | 72 | 1120.1 |
| 20260502104527 | 65 | 249 | 1.7 | 1.7 | 0.00 | 0.00 | 0.00 | 72 | 1120.2 |
| 20260502104025 | 65 | 228 | 0.9 | 1.7 | 0.00 | 0.00 | 0.00 | 71 | 1120.0 |
| 20260502103522 | 65 | 199 | 0.9 | 1.7 | 0.00 | 0.00 | 0.00 | 71 | 1120.0 |
| 20260502103021 | 65 | 237 | 0.9 | 0.9 | 0.00 | 0.00 | 0.00 | 71 | 1120.0 |
| 20260502102517 | 65 | 228 | 0.9 | 0.9 | 0.00 | 0.00 | 0.00 | 70 | 1120.0 |
| 20260502102014 | 66 | 226 | 0.9 | 1.7 | 0.00 | 0.00 | 0.00 | 70 | 1119.9 |
| 20260502101512 | 66 | 232 | 0.9 | 2.6 | 0.00 | 0.00 | 0.00 | 70 | 1119.7 |
| 20260502101010 | 66 | 210 | 0.9 | 0.9 | 0.00 | 0.00 | 0.00 | 70 | 1119.9 |
| 20260502100508 | 66 | 207 | 0.9 | 1.7 | 0.00 | 0.00 | 0.00 | 69 | 1119.9 |
| 20260502091442 | 67 | 205 | 0.9 | 2.6 | 0.00 | 0.00 | 0.00 | 65 | 1119.5 |
| 20260502090939 | 67 | 203 | 3.5 | 5.2 | 0.00 | 0.00 | 0.00 | 64 | 1119.3 |
| 20260502090436 | 67 | 262 | 1.7 | 6.1 | 0.00 | 0.00 | 0.00 | 63 | 1119.6 |
| 20260502071331 | 69 | 292 | 1.7 | 1.7 | 0.00 | 0.00 | 0.00 | 55 | 1119.8 |
| 20260502070829 | 70 | 242 | 0.9 | 1.7 | 0.00 | 0.00 | 0.00 | 56 | 1119.8 |
| 20260502070326 | 70 | 227 | 1.7 | 4.3 | 0.00 | 0.00 | 0.00 | 56 | 1119.8 |
| 20260502065825 | 70 | 240 | 0.9 | 2.6 | 0.00 | 0.00 | 0.00 | 55 | 1119.8 |
| 20260502065323 | 70 | 228 | 1.7 | 2.6 | 0.00 | 0.00 | 0.00 | 55 | 1119.7 |
| 20260502064821 | 70 | 243 | 0.0 | 1.7 | 0.00 | 0.00 | 0.00 | 53 | 1119.8 |
| 20260502064318 | 70 | 230 | 0.9 | 1.7 | 0.00 | 0.00 | 0.00 | 52 | 1119.8 |
| 20260502063815 | 70 | 238 | 0.0 | 0.9 | 0.00 | 0.00 | 0.00 | 52 | 1119.8 |
| 20260502063313 | 70 | 242 | 0.0 | 0.9 | 0.00 | 0.00 | 0.00 | 52 | 1119.8 |
| 20260502062810 | 70 | 256 | 0.0 | 0.9 | 0.00 | 0.00 | 0.00 | 52 | 1119.7 |
| 20260502062308 | 70 | 256 | 0.0 | 0.9 | 0.00 | 0.00 | 0.00 | 52 | 1119.8 |
| 20260502061806 | 70 | 253 | 0.9 | 0.9 | 0.00 | 0.00 | 0.00 | 52 | 1119.8 |
| 20260502061304 | 70 | 249 | 0.0 | 0.0 | 0.00 | 0.00 | 0.00 | 54 | 1120.0 |
| 20260502060759 | 70 | 248 | 0.0 | 0.0 | 0.00 | 0.00 | 0.00 | 53 | 1119.9 |
| 20260502060254 | 70 | 247 | 0.0 | 0.9 | 0.00 | 0.00 | 0.00 | 52 | 1120.0 |
| 20260502055753 | 71 | 250 | 0.0 | 0.0 | 0.00 | 0.00 | 0.00 | 51 | 1120.0 |
| 20260502055250 | 71 | 249 | 0.0 | 0.9 | 0.00 | 0.00 | 0.00 | 49 | 1119.9 |
| 20260502054749 | 71 | 252 | 0.0 | 0.9 | 0.00 | 0.00 | 0.00 | 48 | 1119.9 |
| 20260502054246 | 70 | 260 | 0.0 | 0.9 | 0.00 | 0.00 | 0.00 | 48 | 1120.0 |
| 20260502053744 | 70 | 316 | 0.9 | 0.9 | 0.00 | 0.00 | 0.00 | 49 | 1119.9 |
| 20260502053241 | 71 | 266 | 0.0 | 0.9 | 0.00 | 0.00 | 0.00 | 48 | 1119.8 |
| 20260502052739 | 71 | 255 | 0.0 | 0.0 | 0.00 | 0.00 | 0.00 | 48 | 1119.9 |
| 20260502052237 | 71 | 253 | 0.0 | 0.0 | 0.00 | 0.00 | 0.00 | 48 | 1119.9 |
| 20260502051734 | 72 | 264 | 0.9 | 0.9 | 0.00 | 0.00 | 0.00 | 47 | 1120.0 |
| 20260502051233 | 73 | 252 | 0.9 | 1.7 | 0.00 | 0.00 | 0.00 | 45 | 1119.7 |
| 20260502050729 | 72 | 229 | 0.9 | 0.9 | 0.00 | 0.00 | 0.00 | 42 | 1120.0 |
| 20260502050225 | 72 | 233 | 0.9 | 0.9 | 0.00 | 0.00 | 0.00 | 43 | 1119.8 |
| 20260502045722 | 72 | 210 | 0.9 | 1.7 | 0.00 | 0.00 | 0.00 | 45 | 1119.5 |
| 20260502045219 | 73 | 228 | 0.9 | 1.7 | 0.00 | 0.00 | 0.00 | 47 | 1119.8 |
| 20260502044716 | 73 | 235 | 0.9 | 0.9 | 0.00 | 0.00 | 0.00 | 44 | 1119.7 |
| 20260502044212 | 73 | 228 | 0.9 | 1.7 | 0.00 | 0.00 | 0.00 | 47 | 1119.7 |
| 20260502043710 | 73 | 226 | 0.0 | 0.0 | 0.00 | 0.00 | 0.00 | 47 | 1119.4 |
| 20260502043207 | 73 | 226 | 0.0 | 0.0 | 0.00 | 0.00 | 0.00 | 46 | 1119.4 |
| 20260502042706 | 73 | 226 | 0.0 | 0.0 | 0.00 | 0.00 | 0.00 | 44 | 1119.5 |
| 20260502042204 | 74 | 226 | 0.0 | 0.0 | 0.00 | 0.00 | 0.00 | 41 | 1119.5 |
| 20260502041701 | 74 | 224 | 0.0 | 0.9 | 0.00 | 0.00 | 0.00 | 40 | 1119.4 |
| 20260502041158 | 74 | 221 | 0.0 | 0.9 | 0.00 | 0.00 | 0.00 | 40 | 1119.3 |
| 20260502040655 | 74 | 226 | 0.0 | 0.9 | 0.00 | 0.00 | 0.00 | 39 | 1119.4 |
| 20260502040152 | 74 | 76 | 0.9 | 1.7 | 0.00 | 0.00 | 0.00 | 38 | 1119.0 |
| 20260502035648 | 74 | 3 | 0.9 | 1.7 | 0.00 | 0.00 | 0.00 | 40 | 1119.1 |
| 20260502035145 | 74 | 342 | 0.9 | 1.7 | 0.00 | 0.00 | 0.00 | 41 | 1119.2 |
| 20260502034643 | 74 | 310 | 0.9 | 1.7 | 0.00 | 0.00 | 0.00 | 45 | 1119.1 |
| 20260502034141 | 74 | 307 | 0.9 | 0.9 | 0.00 | 0.00 | 0.00 | 46 | 1119.1 |
| 20260502033639 | 75 | 70 | 1.7 | 1.7 | 0.00 | 0.00 | 0.00 | 45 | 1119.1 |
| 20260502033136 | 74 | 302 | 0.9 | 0.9 | 0.00 | 0.00 | 0.00 | 47 | 1119.0 |
| 20260502032632 | 74 | 266 | 0.0 | 0.9 | 0.00 | 0.00 | 0.00 | 47 | 1119.0 |
| 20260502032129 | 75 | 314 | 0.9 | 2.6 | 0.00 | 0.00 | 0.00 | 47 | 1119.1 |
| 20260502031627 | 75 | 48 | 0.9 | 0.9 | 0.00 | 0.00 | 0.00 | 46 | 1119.0 |
| 20260502031124 | 75 | 306 | 0.9 | 0.9 | 0.00 | 0.00 | 0.00 | 46 | 1119.0 |
| 20260502030623 | 75 | 346 | 1.7 | 1.7 | 0.00 | 0.00 | 0.00 | 45 | 1118.5 |
| 20260502030121 | 75 | 278 | 0.9 | 0.9 | 0.00 | 0.00 | 0.00 | 45 | 1118.5 |
| 20260502025617 | 75 | 234 | 0.0 | 0.9 | 0.00 | 0.00 | 0.00 | 44 | 1118.5 |
| 20260502025116 | 75 | 246 | 0.0 | 1.7 | 0.00 | 0.00 | 0.00 | 43 | 1118.4 |
| 20260502024613 | 76 | 248 | 0.0 | 0.9 | 0.00 | 0.00 | 0.00 | 44 | 1118.2 |
| 20260502024111 | 76 | 260 | 0.0 | 1.7 | 0.00 | 0.00 | 0.00 | 43 | 1118.1 |
| 20260502023609 | 76 | 235 | 0.9 | 0.9 | 0.00 | 0.00 | 0.00 | 43 | 1118.2 |
| 20260502023106 | 76 | 229 | 0.9 | 0.9 | 0.00 | 0.00 | 0.00 | 43 | 1118.3 |
| 20260502022602 | 76 | 232 | 0.9 | 0.9 | 0.00 | 0.00 | 0.00 | 43 | 1118.0 |
| 20260502022100 | 76 | 224 | 0.0 | 0.9 | 0.00 | 0.00 | 0.00 | 43 | 1118.2 |
| 20260502021557 | 76 | 230 | 0.9 | 1.7 | 0.00 | 0.00 | 0.00 | 43 | 1118.1 |
| 20260502021054 | 76 | 241 | 0.0 | 0.9 | 0.00 | 0.00 | 0.00 | 44 | 1117.9 |
| 20260502020551 | 77 | 242 | 0.0 | 0.9 | 0.00 | 0.00 | 0.00 | 44 | 1117.9 |
| 20260502020048 | 77 | 243 | 0.0 | 0.9 | 0.00 | 0.00 | 0.00 | 44 | 1117.7 |
| 20260502015546 | 77 | 240 | 0.0 | 0.9 | 0.00 | 0.00 | 0.00 | 43 | 1117.6 |
| 20260502015042 | 77 | 253 | 0.9 | 1.7 | 0.00 | 0.00 | 0.00 | 43 | 1117.7 |
| 20260502014539 | 77 | 233 | 1.7 | 1.7 | 0.00 | 0.00 | 0.00 | 43 | 1117.6 |
| 20260502014036 | 77 | 240 | 1.7 | 2.6 | 0.00 | 0.00 | 0.00 | 43 | 1117.4 |
| 20260502013532 | 77 | 226 | 0.9 | 2.6 | 0.00 | 0.00 | 0.00 | 43 | 1117.4 |
| 20260502013028 | 77 | 221 | 0.9 | 1.7 | 0.00 | 0.00 | 0.00 | 43 | 1117.7 |
| 20260502012526 | 78 | 166 | 2.6 | 4.3 | 0.00 | 0.00 | 0.00 | 43 | 1117.3 |
| 20260502012023 | 78 | 226 | 0.9 | 2.6 | 0.00 | 0.00 | 0.00 | 43 | 1117.3 |
| 20260502011520 | 78 | 260 | 0.9 | 2.6 | 0.00 | 0.00 | 0.00 | 42 | 1117.5 |
| 20260502011016 | 78 | 228 | 1.7 | 2.6 | 0.00 | 0.00 | 0.00 | 42 | 1117.2 |
| 20260502010514 | 78 | 232 | 0.9 | 2.6 | 0.00 | 0.00 | 0.00 | 42 | 1117.5 |
| 20260502010010 | 79 | 221 | 0.9 | 2.6 | 0.00 | 0.00 | 0.00 | 41 | 1117.3 |
| 20260502005508 | 79 | 171 | 1.7 | 1.7 | 0.00 | 0.00 | 0.00 | 41 | 1117.2 |
| 20260502005005 | 79 | 219 | 1.7 | 1.7 | 0.00 | 0.00 | 0.00 | 40 | 1117.3 |
| 20260502004500 | 79 | 240 | 0.9 | 4.3 | 0.00 | 0.00 | 0.00 | 40 | 1117.0 |
| 20260502003958 | 79 | 228 | 1.7 | 6.1 | 0.00 | 0.00 | 0.00 | 40 | 1116.8 |
| 20260502003455 | 79 | 232 | 1.7 | 5.2 | 0.00 | 0.00 | 0.00 | 40 | 1116.7 |
| 20260502002951 | 80 | 227 | 3.5 | 4.3 | 0.00 | 0.00 | 0.00 | 40 | 1116.6 |
| 20260502002449 | 80 | 191 | 5.2 | 7.8 | 0.00 | 0.00 | 0.00 | 39 | 1116.5 |
| 20260502001946 | 80 | 216 | 2.6 | 4.3 | 0.00 | 0.00 | 0.00 | 39 | 1116.2 |
| 20260502001443 | 80 | 212 | 4.3 | 6.1 | 0.00 | 0.00 | 0.00 | 39 | 1116.4 |
| 20260502000941 | 81 | 203 | 4.3 | 6.1 | 0.00 | 0.00 | 0.00 | 38 | 1116.2 |
| 20260502000439 | 81 | 310 | 5.2 | 7.8 | 0.00 | 0.00 | 0.00 | 37 | 1115.9 |
| 20260501235935 | 82 | 248 | 4.3 | 7.0 | 0.00 | 0.00 | 0.00 | 37 | 1116.2 |
| 20260501235431 | 82 | 228 | 2.6 | 6.1 | 0.00 | 0.00 | 0.00 | 37 | 1116.2 |
| 20260501234926 | 82 | 203 | 3.5 | 6.1 | 0.00 | 0.00 | 0.00 | 37 | 1116.1 |
| 20260501234423 | 83 | 234 | 3.5 | 7.8 | 0.00 | 0.00 | 0.00 | 37 | 1116.3 |
| 20260501233922 | 82 | 256 | 1.7 | 4.3 | 0.00 | 0.00 | 0.00 | 36 | 1116.4 |
| 20260501233419 | 83 | 240 | 2.6 | 4.3 | 0.00 | 0.00 | 0.00 | 36 | 1116.3 |
| 20260501232914 | 83 | 241 | 2.6 | 6.1 | 0.00 | 0.00 | 0.00 | 36 | 1116.2 |
| 20260501232412 | 83 | 273 | 5.2 | 7.0 | 0.00 | 0.00 | 0.00 | 35 | 1116.2 |
| 20260501231909 | 83 | 216 | 4.3 | 5.2 | 0.00 | 0.00 | 0.00 | 35 | 1116.0 |
| 20260501231408 | 83 | 267 | 5.2 | 6.1 | 0.00 | 0.00 | 0.00 | 35 | 1116.1 |
| 20260501230905 | 83 | 207 | 4.3 | 5.2 | 0.00 | 0.00 | 0.00 | 35 | 1116.2 |
| 20260501230404 | 83 | 176 | 4.3 | 6.1 | 0.00 | 0.00 | 0.00 | 34 | 1116.1 |
| 20260501225901 | 84 | 258 | 4.3 | 9.6 | 0.00 | 0.00 | 0.00 | 34 | 1115.8 |
| 20260501225358 | 84 | 237 | 3.5 | 7.8 | 0.00 | 0.00 | 0.00 | 33 | 1116.1 |
| 20260501224854 | 85 | 227 | 2.6 | 6.1 | 0.00 | 0.00 | 0.00 | 32 | 1115.9 |
| 20260501224352 | 84 | 220 | 2.6 | 7.0 | 0.00 | 0.00 | 0.00 | 32 | 1115.7 |
| 20260501223848 | 85 | 156 | 5.2 | 9.6 | 0.00 | 0.00 | 0.00 | 32 | 1115.8 |
| 20260501223344 | 85 | 175 | 3.5 | 6.1 | 0.00 | 0.00 | 0.00 | 31 | 1115.7 |
| 20260501222840 | 84 | 263 | 3.5 | 9.6 | 0.00 | 0.00 | 0.00 | 31 | 1115.9 |
| 20260501222338 | 84 | 179 | 3.5 | 7.0 | 0.00 | 0.00 | 0.00 | 32 | 1115.9 |
| 20260501221834 | 84 | 230 | 4.3 | 7.0 | 0.00 | 0.00 | 0.00 | 31 | 1115.9 |
| 20260501221331 | 84 | 278 | 3.5 | 7.8 | 0.00 | 0.00 | 0.00 | 32 | 1115.8 |
| 20260501220830 | 85 | 193 | 4.3 | 7.8 | 0.00 | 0.00 | 0.00 | 32 | 1115.9 |
| 20260501220327 | 86 | 138 | 4.3 | 7.0 | 0.00 | 0.00 | 0.00 | 32 | 1116.2 |
| 20260501215823 | 86 | 218 | 2.6 | 7.0 | 0.00 | 0.00 | 0.00 | 33 | 1116.1 |
| 20260501215319 | 85 | 323 | 5.2 | 7.0 | 0.00 | 0.00 | 0.00 | 32 | 1115.9 |
| 20260501214815 | 83 | 249 | 2.6 | 6.1 | 0.00 | 0.00 | 0.00 | 34 | 1116.3 |
| 20260501214310 | 82 | 210 | 4.3 | 7.0 | 0.00 | 0.00 | 0.00 | 35 | 1116.3 |
| 20260501213807 | 82 | 252 | 3.5 | 5.2 | 0.00 | 0.00 | 0.00 | 36 | 1116.4 |
| 20260501213303 | 82 | 171 | 5.2 | 6.1 | 0.00 | 0.00 | 0.00 | 36 | 1116.4 |
| 20260501212759 | 83 | 228 | 5.2 | 7.8 | 0.00 | 0.00 | 0.00 | 36 | 1116.6 |
| 20260501212255 | 83 | 231 | 2.6 | 6.1 | 0.00 | 0.00 | 0.00 | 36 | 1116.4 |
| 20260501211753 | 83 | 215 | 1.7 | 8.7 | 0.00 | 0.00 | 0.00 | 36 | 1116.6 |
| 20260501211250 | 84 | 230 | 3.5 | 6.1 | 0.00 | 0.00 | 0.00 | 35 | 1116.5 |
| 20260501210747 | 86 | 256 | 4.3 | 7.0 | 0.00 | 0.00 | 0.00 | 34 | 1116.3 |
| 20260501210243 | 85 | 201 | 1.7 | 4.3 | 0.00 | 0.00 | 0.00 | 33 | 1116.6 |
| 20260501205740 | 84 | 266 | 6.1 | 8.7 | 0.00 | 0.00 | 0.00 | 35 | 1116.6 |
| 20260501205237 | 85 | 242 | 6.1 | 8.7 | 0.00 | 0.00 | 0.00 | 34 | 1116.6 |
| 20260501204734 | 85 | 265 | 1.7 | 5.2 | 0.00 | 0.00 | 0.00 | 35 | 1116.7 |
| 20260501204231 | 85 | 147 | 4.3 | 9.6 | 0.00 | 0.00 | 0.00 | 35 | 1116.7 |
| 20260501203727 | 85 | 243 | 2.6 | 2.6 | 0.00 | 0.00 | 0.00 | 35 | 1116.9 |
| 20260501203224 | 85 | 254 | 4.3 | 6.1 | 0.00 | 0.00 | 0.00 | 35 | 1116.8 |
| 20260501202721 | 84 | 251 | 1.7 | 4.3 | 0.00 | 0.00 | 0.00 | 35 | 1117.0 |
| 20260501202218 | 86 | 231 | 3.5 | 6.1 | 0.00 | 0.00 | 0.00 | 34 | 1116.9 |
| 20260501201715 | 84 | 269 | 5.2 | 7.0 | 0.00 | 0.00 | 0.00 | 36 | 1117.0 |
| 20260501201212 | 84 | 181 | 4.3 | 6.1 | 0.00 | 0.00 | 0.00 | 35 | 1117.2 |
| 20260501200708 | 84 | 242 | 6.1 | 7.0 | 0.00 | 0.00 | 0.00 | 36 | 1117.3 |
| 20260501200206 | 85 | 231 | 5.2 | 9.6 | 0.00 | 0.00 | 0.00 | 37 | 1117.4 |
| 20260501195703 | 84 | 229 | 2.6 | 5.2 | 0.00 | 0.00 | 0.00 | 36 | 1117.5 |
| 20260501195159 | 84 | 233 | 4.3 | 6.1 | 0.00 | 0.00 | 0.00 | 36 | 1117.9 |
| 20260501194655 | 83 | 158 | 5.2 | 7.8 | 0.00 | 0.00 | 0.00 | 37 | 1117.5 |
| 20260501194150 | 84 | 190 | 4.3 | 6.1 | 0.00 | 0.00 | 0.00 | 37 | 1117.8 |
| 20260501193648 | 84 | 272 | 0.9 | 6.1 | 0.00 | 0.00 | 0.00 | 36 | 1117.8 |
| 20260501193146 | 84 | 281 | 3.5 | 4.3 | 0.00 | 0.00 | 0.00 | 37 | 1117.8 |
| 20260501192643 | 83 | 342 | 4.3 | 7.0 | 0.00 | 0.00 | 0.00 | 38 | 1117.9 |
| 20260501192140 | 83 | 228 | 2.6 | 5.2 | 0.00 | 0.00 | 0.00 | 38 | 1118.2 |
| 20260501191637 | 83 | 254 | 3.5 | 5.2 | 0.00 | 0.00 | 0.00 | 39 | 1118.1 |
| 20260501191135 | 82 | 234 | 3.5 | 6.1 | 0.00 | 0.00 | 0.00 | 40 | 1118.4 |
| 20260501190632 | 82 | 219 | 0.9 | 2.6 | 0.00 | 0.00 | 0.00 | 40 | 1118.5 |
| 20260501190132 | 82 | 192 | 3.5 | 6.1 | 0.00 | 0.00 | 0.00 | 39 | 1118.6 |
| 20260501185629 | 83 | 277 | 4.3 | 6.1 | 0.00 | 0.00 | 0.00 | 39 | 1118.5 |
| 20260501185124 | 80 | 272 | 1.7 | 4.3 | 0.00 | 0.00 | 0.00 | 42 | 1118.7 |
| 20260501184621 | 82 | 198 | 3.5 | 6.1 | 0.00 | 0.00 | 0.00 | 40 | 1118.6 |
| 20260501184121 | 82 | 245 | 4.3 | 6.1 | 0.00 | 0.00 | 0.00 | 42 | 1119.0 |
| 20260501183618 | 80 | 249 | 0.9 | 1.7 | 0.00 | 0.00 | 0.00 | 41 | 1118.9 |
| 20260501183115 | 80 | 260 | 6.1 | 8.7 | 0.00 | 0.00 | 0.00 | 42 | 1118.6 |
| 20260501182611 | 81 | 264 | 4.3 | 6.1 | 0.00 | 0.00 | 0.00 | 42 | 1119.1 |
| 20260501182108 | 82 | 217 | 2.6 | 2.6 | 0.00 | 0.00 | 0.00 | 41 | 1119.0 |
| 20260501181605 | 82 | 192 | 2.6 | 2.6 | 0.00 | 0.00 | 0.00 | 43 | 1119.2 |
| 20260501181102 | 81 | 205 | 2.6 | 7.0 | 0.00 | 0.00 | 0.00 | 43 | 1119.5 |
| 20260501180600 | 82 | 191 | 2.6 | 4.3 | 0.00 | 0.00 | 0.00 | 41 | 1119.3 |
| 20260501180055 | 81 | 222 | 2.6 | 2.6 | 0.00 | 0.00 | 0.00 | 38 | 1119.4 |
| 20260501175553 | 79 | 237 | 1.7 | 4.3 | 0.00 | 0.00 | 0.00 | 38 | 1119.4 |
| 20260501175050 | 80 | 269 | 3.5 | 5.2 | 0.00 | 0.00 | 0.00 | 43 | 1119.3 |
| 20260501174546 | 80 | 224 | 3.5 | 5.2 | 0.00 | 0.00 | 0.00 | 38 | 1119.7 |
| 20260501174044 | 80 | 108 | 3.5 | 8.7 | 0.00 | 0.00 | 0.00 | 40 | 1119.6 |
| 20260501173541 | 79 | 183 | 0.9 | 4.3 | 0.00 | 0.00 | 0.00 | 39 | 1119.8 |
| 20260501173038 | 79 | 271 | 1.7 | 5.2 | 0.00 | 0.00 | 0.00 | 41 | 1119.8 |
| 20260501172533 | 79 | 179 | 2.6 | 6.1 | 0.00 | 0.00 | 0.00 | 43 | 1119.8 |
| 20260501172029 | 78 | 183 | 3.5 | 5.2 | 0.00 | 0.00 | 0.00 | 44 | 1119.9 |
| 20260501171526 | 78 | 287 | 2.6 | 4.3 | 0.00 | 0.00 | 0.00 | 41 | 1119.8 |
| 20260501171022 | 79 | 216 | 2.6 | 5.2 | 0.00 | 0.00 | 0.00 | 41 | 1119.9 |
| 20260501170519 | 78 | 255 | 1.7 | 4.3 | 0.00 | 0.00 | 0.00 | 43 | 1119.9 |
| 20260501170016 | 79 | 224 | 2.6 | 5.2 | 0.00 | 0.00 | 0.00 | 43 | 1120.2 |
| 20260501165514 | 78 | 179 | 0.9 | 2.6 | 0.00 | 0.00 | 0.00 | 44 | 1119.8 |
| 20260501165012 | 77 | 131 | 2.6 | 4.3 | 0.00 | 0.00 | 0.00 | 45 | 1120.1 |
| 20260501164509 | 77 | 229 | 2.6 | 6.1 | 0.00 | 0.00 | 0.00 | 45 | 1120.1 |
| 20260501164006 | 76 | 249 | 1.7 | 4.3 | 0.00 | 0.00 | 0.00 | 46 | 1120.1 |
| 20260501163502 | 77 | 193 | 3.5 | 5.2 | 0.00 | 0.00 | 0.00 | 45 | 1120.1 |
| 20260501162958 | 76 | 248 | 0.9 | 4.3 | 0.00 | 0.00 | 0.00 | 47 | 1120.1 |
| 20260501162455 | 77 | 229 | 5.2 | 6.1 | 0.00 | 0.00 | 0.00 | 47 | 1120.2 |
| 20260501161952 | 76 | 246 | 1.7 | 1.7 | 0.00 | 0.00 | 0.00 | 47 | 1120.0 |
| 20260501161449 | 75 | 211 | 3.5 | 5.2 | 0.00 | 0.00 | 0.00 | 48 | 1120.4 |
| 20260501160946 | 74 | 208 | 2.6 | 4.3 | 0.00 | 0.00 | 0.00 | 49 | 1120.4 |
| 20260501160442 | 74 | 238 | 3.5 | 5.2 | 0.00 | 0.00 | 0.00 | 49 | 1120.5 |
| 20260501155940 | 75 | 232 | 0.9 | 2.6 | 0.00 | 0.00 | 0.00 | 49 | 1120.5 |
| 20260501155437 | 75 | 229 | 0.9 | 2.6 | 0.00 | 0.00 | 0.00 | 48 | 1120.5 |
| 20260501154933 | 75 | 203 | 0.9 | 2.6 | 0.00 | 0.00 | 0.00 | 49 | 1120.4 |
| 20260501154431 | 73 | 235 | 0.9 | 2.6 | 0.00 | 0.00 | 0.00 | 50 | 1120.7 |
| 20260501153927 | 74 | 136 | 1.7 | 4.3 | 0.00 | 0.00 | 0.00 | 49 | 1120.5 |
| 20260501153426 | 73 | 219 | 0.9 | 0.9 | 0.00 | 0.00 | 0.00 | 50 | 1120.7 |
| 20260501152921 | 73 | 70 | 1.7 | 2.6 | 0.00 | 0.00 | 0.00 | 50 | 1120.7 |
| 20260501152418 | 72 | 192 | 1.7 | 2.6 | 0.00 | 0.00 | 0.00 | 49 | 1120.5 |